Home > Weather > Yokohama > Past weeks

Flag for Japan Weather for the Past 2 Weeks in Yokohama, Japan

Now
64 °F

Lots of rain. Fog.


Feels Like: 64 °F
Forecast: 40 / 57 °F
Wind: 29 mph from Southwest

Location: Tokyo International Airport

Current Time: Feb 14, 2016 at 9:01:22 AM

Latest Report: Feb 14, 2016 at 8:04 AM


Visibility: 0 mi

Pressure: 29.56 "Hg

Humidity: 94%

Dew point: 63 °F

Location of YokohamaLocation

Historic Weather in Yokohama — Graph

°F

Yokohama Temperature Yesterday

Maximum temperature yesterday: 68 °F (at 12:30 PM)
Minimum temperature yesterday: 48 °F (at 4:00 AM)
Average temperature yesterday: 58 °F

High & Low Weather Summary for the Past Weeks

 TemperatureHumidityPressure
High68 °F (Feb 13, 12:30 PM)100% (Feb 14, 1:50 AM)30.51 "Hg (Feb 14, 1:50 AM)
Low36 °F (Feb 5, 7:00 AM)22% (Feb 10, 12:30 PM)29.56 "Hg (Feb 14, 7:30 AM)
Average45 °F61%30.07 "Hg
* Reported Jan 30 7:00 AM — Feb 14 7:30 AM, Yokohama, Weather by CustomWeather, © 2016

Note: Actual official high and low records may vary slightly from our data, if they occured in-between our weather recording intervals... More about our weather records

Advertising

Yokohama Weather History for the Previous 24 Hours

 ConditionsComfort  
Time TempWeatherWind HumidityBarometerVisibility
7:30 AM
Sun, Feb 14
64 °FLots of rain. Fog.29 mph94%29.56 "Hg2 mi
7:00 AM64 °FSprinkles. Partly sunny.31 mph94%29.59 "Hg4 mi
6:30 AM63 °FSprinkles. Broken clouds.31 mph94%29.59 "Hg6 mi
6:00 AM63 °FSprinkles. Passing clouds.29 mph100%29.62 "HgN/A
5:30 AM63 °FRain showers. Fog.26 mph94%29.62 "Hg3 mi
5:00 AM63 °FSprinkles. Passing clouds.36 mph94%29.62 "HgN/A
4:30 AM63 °FSprinkles. Partly cloudy.30 mph94%29.65 "Hg6 mi
4:00 AM63 °FSprinkles. Passing clouds.31 mph94%29.68 "Hg5 mi
3:30 AM63 °FRain showers. Passing clouds.30 mph94%29.71 "Hg4 mi
3:00 AM63 °FSprinkles. Partly cloudy.28 mph94%29.74 "Hg4 mi
2:30 AM61 °FRain showers. Fog.29 mph100%29.77 "Hg3 mi
2:00 AM61 °FRain showers. Fog.30 mph100%29.80 "Hg2 mi
1:50 AM61 °FRain showers. Fog.28 mph100%29.80 "Hg2 mi
1:30 AM61 °FSprinkles. Partly cloudy.30 mph94%29.80 "Hg4 mi
1:00 AM63 °FLight rain. Partly cloudy.30 mph88%29.80 "Hg4 mi
12:30 AM63 °FLight rain. Passing clouds.22 mph88%29.83 "HgN/A
12:00 AM63 °FPassing clouds.22 mph88%29.86 "HgN/A
11:30 PM
Sat, Feb 13
61 °FLight rain. Passing clouds.25 mph88%29.89 "HgN/A
11:00 PM63 °FLight rain. Passing clouds.25 mph88%29.92 "HgN/A
10:30 PM63 °FLight rain. Passing clouds.22 mph83%29.92 "HgN/A
10:00 PM63 °FPassing clouds.21 mph83%29.95 "HgN/A
9:30 PM63 °FLight rain. Passing clouds.18 mph83%29.95 "HgN/A
9:00 PM63 °FLight rain. Passing clouds.18 mph83%29.98 "HgN/A
8:30 PM63 °FLight rain. Passing clouds.18 mph83%29.98 "HgN/A
8:00 PM63 °FLight rain. Passing clouds.18 mph83%29.98 "HgN/A
7:30 PM63 °FPassing clouds.22 mph83%30.01 "HgN/A
7:00 PM63 °FPassing clouds.20 mph83%30.01 "HgN/A
6:30 PM63 °FPassing clouds.21 mph77%30.01 "HgN/A
6:00 PM63 °FPassing clouds.17 mph77%30.01 "HgN/A
5:30 PM63 °FPartly cloudy.18 mph77%30.01 "HgN/A
5:00 PM63 °FPartly sunny.18 mph77%30.01 "HgN/A
4:30 PM64 °FPartly sunny.20 mph73%30.01 "HgN/A
4:00 PM64 °FScattered clouds.17 mph73%30.01 "HgN/A
3:30 PM66 °FScattered clouds.21 mph68%30.01 "HgN/A
3:00 PM66 °FScattered clouds.18 mph68%30.01 "HgN/A
2:30 PM66 °FScattered clouds.22 mph68%30.04 "HgN/A
2:00 PM66 °FPartly sunny.23 mph64%30.04 "HgN/A
1:30 PM66 °FPartly sunny.24 mph60%30.04 "HgN/A
1:00 PM66 °FPartly sunny.23 mph60%30.04 "HgN/A
12:30 PM68 °FScattered clouds.21 mph56%30.07 "HgN/A
12:00 PM63 °FPassing clouds.6 mph64%30.07 "Hg5 mi
11:30 AM55 °FPassing clouds.6 mph67%30.09 "Hg4 mi
11:00 AM54 °FPassing clouds.5 mph67%30.12 "Hg4 mi
10:30 AM54 °FPassing clouds.5 mph63%30.12 "Hg4 mi
10:00 AM52 °FScattered clouds.5 mph67%30.15 "Hg4 mi
9:00 AM52 °FScattered clouds.6 mph58%30.18 "Hg6 mi
Weather by CustomWeather, © 2016

See weather overviewHow to use our weather pages